Wind_Speed
21 20 20 20 20 21 21 20 20 19 18 17 16 16 15 15 14 13 12 10 10 10 8 6 4 5 4 9 14 7 7 11 15 16 17 15 17 13 5 8 3 12 4 2 7 3 7
21 21 21 21 21 21 21 20 20 19 19 17 16 16 15 15 15 15 12 10 9 9 6 5 4 4 6 14 9 4 8 13 17 19 18 18 14 9 10 1 3 10 6 7 6 5 2
22 22 21 21 21 21 21 21 20 20 19 18 17 16 15 16 16 16 15 10 9 7 5 5 5 3 11 18 4 6 10 16 20 21 17 18 18 10 11 4 9 12 9 9 9 7 1
24 23 23 22 22 22 22 21 21 20 19 18 18 17 16 16 17 17 17 10 6 4 6 7 6 4 8 8 17 10 12 17 21 19 21 15 10 13 14 6 9 13 13 11 5 6 6
24 24 23 23 23 22 22 21 21 20 20 19 19 18 17 17 19 19 9 0 3 5 7 6 4 9 12 8 16 16 15 18 21 17 19 8 6 15 18 11 13 10 10 5 12 11 4
24 24 24 24 23 23 22 22 21 20 20 19 19 18 18 17 19 13 3 5 5 8 5 6 14 8 13 13 16 19 19 19 16 16 13 11 11 14 15 14 9 6 2 12 10 1 10
25 24 24 24 23 23 22 22 21 20 20 20 19 19 19 18 17 4 4 2 5 6 14 10 16 12 5 17 17 19 22 20 18 18 16 17 14 16 21 11 12 11 16 11 12 8 4
26 26 25 24 23 23 24 23 23 23 21 20 20 19 19 18 17 7 5 6 9 9 8 27 21 17 11 10 13 15 22 16 20 18 18 17 17 21 15 14 4 9 12 12 7 7 6
27 27 26 25 24 23 24 25 25 23 22 21 21 19 18 17 15 8 16 19 9 13 7 16 25 17 13 10 14 18 21 20 17 20 20 20 20 19 14 11 12 12 14 2 4 9 9
28 27 27 26 25 25 26 26 25 25 23 22 21 19 17 14 9 9 12 17 16 11 6 12 21 18 18 12 17 20 24 19 14 18 20 20 22 15 16 8 12 15 14 9 11 11 9
30 29 29 28 27 28 28 28 27 26 26 24 21 18 15 8 14 6 8 11 9 7 6 18 20 10 15 17 11 20 25 20 20 18 15 19 20 9 8 14 14 17 7 14 15 13 17
30 31 29 29 29 29 30 30 29 29 29 26 23 17 13 6 9 16 8 1 6 6 10 10 9 15 18 19 22 21 19 20 17 18 17 22 15 16 15 11 16 19 12 11 14 14 13
31 32 30 30 30 30 31 32 32 32 32 31 25 19 15 8 8 11 8 8 6 9 10 12 19 18 20 16 20 17 21 20 17 15 17 19 21 14 13 13 16 15 13 11 10 11 3
33 33 32 30 31 32 33 34 35 36 37 30 18 9 7 21 4 6 12 8 10 14 20 14 14 17 20 19 21 19 19 18 21 19 13 16 15 19 12 18 16 11 17 12 6 7 6
33 33 33 30 31 32 34 35 36 38 35 17 3 2 9 10 11 11 9 12 10 16 17 7 14 17 18 19 16 18 20 20 19 22 19 16 18 16 19 17 18 18 15 9 6 9 8
32 33 33 30 31 32 34 36 38 39 33 13 5 13 9 11 15 12 9 19 19 14 12 8 10 13 17 20 21 19 19 20 21 22 20 20 13 18 21 17 20 20 7 5 1 5 14
31 32 32 30 31 32 34 36 39 39 31 8 7 6 9 14 15 8 11 19 20 9 6 8 7 11 16 16 19 18 16 17 22 20 19 19 16 11 18 14 20 15 17 14 16 7 6
30 32 32 30 31 32 34 35 38 39 32 3 7 5 14 18 8 10 13 23 13 6 8 11 15 17 16 16 20 18 16 17 12 21 22 19 12 13 16 17 19 19 18 19 12 13 13
30 31 30 29 30 32 34 35 37 37 32 11 4 6 12 16 7 11 18 23 10 11 8 11 10 12 9 15 16 18 19 15 13 14 18 14 15 14 17 17 19 16 21 20 16 19 5
30 30 28 28 30 32 33 34 35 35 32 4 5 3 5 8 12 15 15 18 8 13 17 13 12 13 15 12 16 14 19 13 10 9 9 13 18 17 4 13 15 22 19 15 18 12 6
29 27 27 28 29 31 33 35 36 35 28 2 4 5 7 8 13 18 13 18 17 18 17 12 13 17 14 11 14 14 15 12 12 8 10 16 18 19 14 16 3 17 19 14 15 17 17
27 27 26 27 29 31 31 33 37 37 24 6 5 7 12 10 11 16 10 12 11 19 6 18 18 14 10 10 8 3 7 5 15 12 16 17 16 17 17 14 10 9 31 13 17 15 12
26 27 27 26 28 29 29 31 34 35 24 7 15 12 8 12 9 9 12 9 19 18 9 0 6 10 17 15 18 5 3 14 14 15 16 17 14 14 15 13 17 17 16 11 15 15 16
26 27 27 26 26 27 27 29 30 30 24 10 16 13 7 11 10 16 7 18 10 10 10 18 10 9 9 19 24 7 12 19 10 40 17 15 14 12 13 16 17 14 14 3 9 10 23
26 26 27 26 25 26 26 28 29 28 23 14 14 9 7 8 11 7 14 22 8 10 9 14 29 3 11 37 13 3 2 5 17 18 19 17 14 11 12 12 13 11 18 18 16 15 5
26 26 26 26 24 25 25 27 28 28 25 17 15 8 9 7 2 12 12 7 10 10 9 11 3 10 7 6 11 4 6 6 6 5 1 1 5 6 7 13 13 12 16 22 19 2 16
27 26 27 26 24 24 24 26 28 28 23 16 10 10 9 8 6 12 12 9 10 14 7 12 12 7 7 5 4 5 5 8 11 5 6 5 2 8 8 2 6 13 18 17 11 5 15
26 26 27 26 24 24 23 26 27 27 22 17 14 6 8 6 13 9 12 11 13 12 8 10 12 4 7 5 2 4 3 4 5 5 7 5 2 8 12 8 2 10 8 3 16 22 7
27 28 25 25 24 24 23 27 28 25 19 13 9 12 10 6 8 19 16 12 8 6 5 5 9 2 5 4 8 5 4 4 9 3 8 8 2 2 3 5 11 11 16 5 14 23 8
Wind_Direction
12 11 7 5 1 359 357 355 353 351 349 346 341 338 336 335 334 331 322 307 294 285 269 254 244 267 309 226 251 192 228 206 201 218 238 253 262 269 264 137 221 185 169 236 185 245 249
10 7 4 1 358 357 355 352 350 349 347 344 340 338 335 334 332 328 319 298 288 275 253 226 218 259 253 255 246 170 189 184 192 208 229 246 262 337 290 115 327 312 244 262 176 234 154
10 7 4 0 358 355 354 352 348 347 345 342 340 336 334 331 329 324 319 291 277 259 218 199 200 295 262 243 235 199 213 197 204 206 229 230 264 270 257 234 212 258 249 232 220 181 120
7 5 3 1 359 355 353 351 348 347 343 341 339 335 333 331 328 319 316 293 265 211 180 182 197 258 257 283 237 241 207 207 204 207 233 238 238 273 286 210 243 231 243 241 34 191 134
6 3 1 359 358 355 354 351 347 344 340 339 338 332 332 330 328 326 323 34 133 159 164 171 238 213 255 183 213 219 215 212 201 206 229 299 281 255 252 233 247 206 235 215 209 243 275
6 3 1 358 356 355 353 350 347 344 340 338 335 331 330 327 329 330 180 138 144 135 177 237 261 256 251 229 199 206 207 215 198 205 211 222 234 243 243 240 234 271 343 210 171 277 243
4 4 1 359 356 354 351 349 345 342 337 335 331 328 326 325 329 302 121 156 197 196 217 216 178 223 140 217 179 197 197 212 200 208 212 210 228 230 238 279 164 253 199 233 178 135 245
3 1 359 356 353 351 349 348 344 341 338 334 331 324 321 319 319 241 228 243 26 345 271 225 254 229 283 147 180 198 191 205 202 207 211 212 229 240 243 205 226 237 271 254 113 166 213
359 358 357 355 352 349 350 347 343 341 337 332 328 324 315 314 313 239 220 240 323 325 271 254 212 226 213 240 212 200 189 206 200 211 207 231 205 242 271 204 230 251 248 284 288 242 226
360 357 355 353 350 348 348 347 344 340 336 331 323 319 313 311 299 227 226 251 266 281 279 209 192 219 211 199 229 204 194 200 218 216 225 227 252 198 224 254 255 241 229 188 252 248 246
358 356 354 353 351 348 347 346 345 340 336 329 321 311 300 281 308 253 352 207 218 246 265 153 175 183 195 195 171 201 186 207 222 210 225 230 238 205 257 249 255 261 194 266 267 239 256
357 355 353 351 349 348 346 345 343 341 336 330 320 303 292 259 233 248 316 204 232 231 245 146 139 175 179 208 239 177 184 220 222 247 227 244 211 244 234 222 259 244 251 258 261 262 254
357 354 352 352 351 349 346 345 343 341 337 332 316 287 237 248 220 209 228 225 210 238 211 162 164 185 196 191 216 191 188 201 220 223 234 224 250 217 260 248 227 251 259 259 233 244 344
354 353 351 351 350 349 347 347 345 343 340 333 315 264 227 213 251 275 201 216 242 218 254 138 169 190 202 190 214 195 193 208 217 220 226 223 215 239 185 244 262 212 236 255 283 318 303
352 352 351 350 349 349 348 347 346 346 347 331 314 199 214 233 200 229 216 217 220 250 226 213 164 179 201 200 204 211 198 214 209 227 237 213 224 211 229 217 245 250 224 175 208 247 265
351 351 351 350 349 350 349 348 349 351 350 316 286 218 161 159 184 212 225 238 235 307 299 290 190 188 198 207 208 192 198 216 225 211 240 262 250 210 213 211 223 244 122 65 308 244 248
349 350 350 351 351 351 350 349 354 354 350 294 251 231 131 157 172 214 221 234 241 247 293 287 268 191 218 205 197 208 217 217 208 224 212 252 268 248 214 194 224 218 241 244 211 243 283
348 349 350 351 352 352 351 352 357 0 354 338 269 276 153 162 195 220 229 242 269 289 201 263 283 295 202 219 196 223 207 218 203 213 203 222 249 255 199 202 221 245 238 230 238 244 215
348 348 350 352 352 353 351 353 357 0 6 321 266 112 169 194 221 205 232 251 244 236 253 226 257 273 277 230 212 212 237 225 174 210 223 201 236 255 246 194 203 225 243 254 271 279 121
347 349 352 353 354 353 352 353 355 356 359 301 279 152 164 214 261 287 247 240 237 236 276 284 280 296 242 231 239 204 231 203 174 229 235 201 235 242 202 272 351 207 232 255 265 285 154
349 352 353 353 355 354 353 354 355 354 355 232 244 262 186 194 223 241 264 245 234 227 206 244 261 249 253 243 211 216 222 192 165 191 214 216 231 246 240 196 95 305 319 294 233 254 267
352 355 354 355 355 356 355 356 357 356 354 227 318 335 338 307 222 232 259 264 272 226 241 212 223 328 296 36 18 76 31 326 171 185 203 209 239 245 253 271 178 211 214 250 269 277 81
357 356 356 355 356 357 357 358 360 1 10 326 4 328 305 287 262 225 228 247 232 249 209 305 91 35 31 34 333 205 162 275 243 275 207 207 217 236 253 251 259 260 243 238 275 336 104
353 354 355 355 356 357 357 357 358 2 6 316 307 321 282 284 296 337 66 342 296 297 318 27 352 81 272 107 272 54 353 299 332 285 195 210 213 229 244 245 243 252 267 234 298 305 97
351 352 353 354 354 355 356 356 355 355 356 335 299 327 310 302 318 15 243 203 299 271 283 135 252 205 249 155 173 112 1 265 284 186 192 189 208 216 242 245 255 263 25 21 344 274 150
348 349 350 351 351 352 352 353 352 351 351 345 304 337 307 292 348 342 315 302 279 317 211 228 180 250 242 246 236 94 260 99 232 262 23 179 18 279 226 244 272 25 351 11 343 57 27
344 345 347 347 348 348 348 348 348 348 347 339 284 326 309 292 294 349 355 325 336 334 345 7 336 268 228 241 46 54 15 3 313 279 220 182 230 272 255 286 89 352 318 351 337 7 340
341 342 343 344 345 345 345 346 345 344 345 347 293 301 330 307 298 342 333 326 340 359 49 327 315 283 312 259 145 113 118 149 269 291 302 290 257 272 266 310 15 41 10 26 321 288 274
339 339 340 341 342 342 343 343 340 339 338 340 290 335 326 269 306 307 291 292 298 320 321 272 295 51 344 332 73 96 42 349 27 272 305 233 126 244 262 72 133 124 127 158 266 284 340
Height
829 826 823 820 816 813 809 806 803 800 797 794 791 788 785 782 779 777 775 773 771 770 770 771 771 772 772 766 751 741 742 744 747 749 748 741 734 726 734 728 726 743 731 726 724 725 724
830 826 823 820 816 813 809 806 802 799 796 793 790 787 784 781 778 775 773 771 769 769 769 770 771 772 773 766 735 739 741 743 744 746 744 739 729 722 731 727 734 731 727 726 722 724 721
831 827 824 820 816 812 809 805 801 798 795 792 789 786 783 780 776 773 771 769 767 767 768 770 771 773 768 749 737 737 739 740 741 741 739 734 728 729 722 731 723 727 740 730 725 723 727
831 827 824 820 816 812 808 804 801 797 794 790 787 784 781 778 775 771 768 766 765 766 768 769 771 775 759 736 738 738 737 736 737 738 736 729 730 729 727 717 728 738 735 752 731 726 725
832 828 823 819 815 812 808 804 800 796 793 789 786 783 780 776 773 769 766 765 765 766 768 769 772 770 750 734 735 734 735 732 733 734 733 731 731 734 727 739 746 737 758 751 748 725 727
833 828 824 819 815 811 807 803 799 795 791 787 784 781 778 774 771 767 766 765 766 767 769 772 769 767 738 730 729 732 733 731 731 732 735 737 739 745 735 738 773 757 754 749 758 750 730
833 828 824 819 815 811 806 802 798 794 790 786 782 779 776 773 769 767 767 768 769 767 762 743 737 732 717 722 725 727 728 728 727 732 750 738 753 756 735 725 732 737 753 745 735 725 735
833 828 823 819 815 810 805 800 796 792 788 784 780 777 774 771 768 766 767 759 740 741 743 735 732 725 719 716 726 722 724 731 733 748 738 744 756 727 715 731 731 734 742 741 728 723 733
833 828 823 818 813 809 804 799 794 790 786 782 778 775 771 768 765 764 761 751 746 743 741 718 720 722 720 722 725 723 720 725 734 744 740 746 732 716 721 727 738 737 741 737 745 734 727
833 827 822 817 812 807 803 797 792 787 783 779 775 772 769 766 767 758 755 750 750 746 752 719 721 718 716 718 728 710 714 723 729 740 733 734 713 719 724 736 729 746 716 723 733 739 761
833 827 822 816 811 805 800 795 790 785 780 775 771 769 766 765 762 751 744 745 745 744 774 693 708 699 704 720 707 710 708 716 732 731 730 736 724 724 734 732 721 733 720 728 725 735 735
832 826 821 815 809 804 798 793 787 781 775 770 766 764 763 762 761 748 746 745 746 764 762 711 705 714 717 716 711 703 712 711 711 722 721 721 701 712 716 715 714 710 721 727 726 730 759
832 826 820 814 808 802 796 790 783 777 770 764 758 756 758 757 747 747 749 745 762 759 695 709 715 710 713 720 716 710 722 731 737 753 746 727 719 706 706 726 714 719 738 766 767 761 801
831 825 819 813 807 800 793 787 779 772 764 757 750 747 748 748 748 748 746 751 761 717 706 680 692 704 718 711 713 711 723 734 721 724 731 747 753 718 707 724 728 727 734 757 794 791 794
831 825 818 812 806 799 792 785 777 769 761 754 751 749 749 744 746 748 744 756 733 704 682 684 689 712 718 707 712 711 719 725 717 715 737 734 738 702 704 707 715 725 739 717 763 759 786
830 824 818 811 804 797 790 783 775 767 758 753 752 742 735 740 745 745 746 744 711 686 682 684 706 700 719 710 717 712 718 707 712 702 699 710 734 700 697 700 705 714 716 763 763 797 798
829 823 817 810 803 796 789 782 774 764 755 750 751 733 733 738 743 740 744 727 707 685 688 694 693 697 699 702 704 705 711 698 693 696 697 705 713 710 694 713 723 720 728 724 732 748 776
827 821 815 809 802 795 788 781 773 764 753 751 741 735 732 735 743 733 731 711 703 687 686 690 684 685 690 688 697 704 703 690 675 685 706 700 708 724 711 689 689 695 706 708 734 739 730
826 820 814 808 802 795 788 780 773 767 762 759 737 722 731 731 738 725 715 704 690 697 691 692 691 680 670 683 699 689 688 669 671 684 695 697 718 734 717 698 690 705 700 696 696 696 739
824 818 813 807 801 794 787 780 772 766 762 760 738 727 727 728 720 721 710 706 702 691 691 683 684 679 680 685 675 688 687 672 671 681 687 689 702 713 744 742 720 708 700 696 701 720 731
824 818 812 807 801 794 787 779 771 763 757 756 734 722 704 725 720 714 705 696 700 699 687 685 692 689 682 689 685 689 682 675 676 684 687 692 716 704 701 712 724 714 721 699 706 704 718
823 817 812 806 801 795 788 780 771 761 751 749 736 732 714 707 698 705 705 698 694 686 685 691 690 692 686 716 713 712 715 708 686 682 690 687 715 703 712 695 706 724 715 695 692 691 705
823 818 812 807 801 795 789 782 775 766 757 748 742 736 727 713 696 701 698 699 693 679 671 685 696 711 727 733 717 705 709 706 706 698 693 694 703 714 726 701 702 716 694 694 691 683 699
823 818 813 807 802 796 791 785 779 773 770 770 756 748 737 723 704 711 710 724 689 684 693 711 702 722 724 730 739 711 708 703 710 707 674 692 697 703 721 707 742 694 666 674 690 688 709
823 818 812 807 802 796 791 786 780 775 770 767 759 753 741 736 713 728 715 721 692 690 693 725 721 690 677 731 734 756 769 743 710 665 670 668 686 708 721 719 701 690 702 703 704 703 686
822 817 812 807 802 796 791 786 781 775 770 764 759 756 751 738 717 711 708 701 700 695 689 688 679 683 684 692 695 734 724 722 758 690 667 673 683 698 707 728 737 728 714 700 695 723 691
821 816 811 806 801 796 791 786 781 775 770 767 760 756 751 741 712 711 710 710 699 702 698 696 693 685 674 689 721 770 774 770 729 710 708 703 707 718 712 731 745 756 733 721 759 748 719
819 814 809 804 799 795 790 785 780 775 770 767 759 756 755 743 725 717 711 713 710 706 726 736 715 685 683 695 706 756 763 771 761 757 748 718 725 726 717 730 771 744 749 769 763 733 713
816 811 807 802 797 793 789 784 779 774 771 768 762 755 753 751 731 726 719 716 719 718 718 709 706 710 707 704 720 760 779 771 767 761 755 735 716 736 737 737 740 742 757 758 753 738 717